Regional Weather Roundup
Issued by NWS Upton, NY

Home | Current Version | Previous Version | Text Only | Print | Product List | Glossary On
Versions: 1 2 3 4 5 6 7 8 9 10 11 12 13 14 15 16 17 18 19 20 21 22 23 24 25 26 27 28 29 30 31 32 33 34 35 36 37 38 39 40 41 42 43 44 45 46 47 48 49 50
000
ASUS41 KOKX 031808
RWROKX

REGIONAL WEATHER ROUNDUP
NATIONAL WEATHER SERVICE NEW YORK NY
200 PM EDT FRI JUL 03 2015

NOTE: "FAIR" INDICATES FEW OR NO CLOUDS BELOW 12,000 FEET WITH NO
SIGNIFICANT WEATHER AND/OR OBSTRUCTIONS TO VISIBILITY.

NYZ071-072-176-178-NJZ106-104-031900-
NEW YORK CITY METRO AREA


CITY           SKY/WX    TMP DP  RH WIND       PRES   REMARKS
CENTRAL PARK   SUNNY     79  51  37 VRB3      30.00F
LAGUARDIA APRT PTSUNNY   79  49  34 NW5       29.97F
KENNEDY INTL   PTSUNNY   81  50  33 VRB5      29.98F
NEWARK/LIBERTY PTSUNNY   82  54  37 NW6       29.97F
BRNX BOT. GARD   N/A     79  52  38 N5        29.99F
TETERBORO      SUNNY     80  50  34 VRB3      29.97S
$$

NYZ177-179-078>081-031900-
LONG ISLAND NEW YORK

CITY           SKY/WX    TMP DP  RH WIND       PRES   REMARKS
FARMINGDALE    SUNNY     78  50  37 SW3       29.98F
ISLIP          MOSUNNY   79  46  31 NW8       29.97S
SHIRLEY        SUNNY     79  51  37 N7G17     29.98F
WESTHAMPTON    SUNNY     75  54  47 E6        30.00S
MONTAUK POINT    N/A     77  54  44 S5        29.99F
$$

NYZ052-065-067-031900-
HUDSON VALLEY

CITY           SKY/WX    TMP DP  RH WIND       PRES   REMARKS
WHITE PLAINS   SUNNY     77  49  37 VRB6      29.99S
NEWBURGH       SUNNY     75  54  46 VRB5      30.01S
MONTGOMERY     SUNNY     76  55  48 VRB3      29.99F
POUGHKEEPSIE   SUNNY     77  49  37 N6        29.98S
ALBANY         MOSUNNY   76  46  34 CALM      29.99F
$$

NJZ001-105-106-008-010-013-015-019>022-104-031900-
NEW JERSEY

CITY           SKY/WX    TMP DP  RH WIND       PRES   REMARKS
NEWARK/LIBERTY PTSUNNY   82  54  37 NW6       29.97F
TETERBORO      SUNNY     80  50  34 VRB3      29.97S
CALDWELL       SUNNY     79  52  38 VRB5      29.98F
MORRISTOWN     MOSUNNY   81  54  39 CALM      29.98F
SOMERVILLE     SUNNY     81  54  39 VRB3      29.97F
SUSSEX         SUNNY     77  53  43 CALM      29.99F
ANDOVER          N/A     76  52  43 VRB3      30.00F
TRENTON        MOSUNNY   79  58  48 S6        29.98F
MILLVILLE      PTSUNNY   78  63  59 VRB3      29.99F
ATLANTIC CITY  PTSUNNY   76  61  59 SE6       30.00F
WRIGHTSTOWN    MOSUNNY   81  62  52 VRB5      29.96F
TOMS RIVER     PTSUNNY   79  59  50 SE8       29.99S
BELMAR         PTSUNNY   77  59  53 SE9       29.99F
$$

PAZ047>061-062-071-031900-
EASTERN PENNSYLVANIA

CITY           SKY/WX    TMP DP  RH WIND       PRES   REMARKS
PHILADELPHIA   PTSUNNY   81  60  48 SE3       29.98F
ALLENTOWN      SUNNY     79  57  46 SW6       29.99F
SCRANTON       SUNNY     77  53  43 CALM      30.00F
$$

CTZ002-004>006-009-010-012-RIZ004-006-007-MAZ004-011-015-031900-
SOUTHERN NEW ENGLAND
 IN CT

CITY           SKY/WX    TMP DP  RH WIND       PRES   REMARKS
BRADLEY INTL   MOSUNNY   79  50  36 VRB3      29.97S
HARTFORD       SUNNY     77  50  38 S5        29.97S
DANBURY        SUNNY     75  49  39 CALM      30.00F
WTRBRY/OXFORD  SUNNY     75  50  41 CALM      30.02S
BRIDGEPORT     SUNNY     74  54  49 S10       29.99S
MERIDEN        SUNNY     78  48  34 W5        29.98S
NEW HAVEN      MOSUNNY   74  55  51 S9        29.99S
CHESTER        FAIR      75  55  50 SW6       29.99S
GROTON         MOSUNNY   73  56  54 SW9       29.97S
WILLIMANTIC    SUNNY     78  50  37 SW7       29.98S

 IN RI

CITY           SKY/WX    TMP DP  RH WIND       PRES   REMARKS
PROVIDENCE     MOSUNNY   79  51  37 W9        29.96F
BLOCK ISLAND   SUNNY     73  55  53 S8        29.98F
WESTERLY       SUNNY     76  52  43 S8        29.98F

 IN MA

CITY           SKY/WX    TMP DP  RH WIND       PRES   REMARKS
BOSTON         MOSUNNY   73  52  47 SE12      29.95F
WORCESTER      SUNNY     73  46  38 SW8       29.99S
WESTFIELD      PTSUNNY   76  50  40 S6        29.97S
PROVINCETOWN   SUNNY     75  16  10 N5        29.98S
NANTUCKET      SUNNY     75  49  39 N13       29.97S
$$

ANZ330-335-338-340-345-350-353-355-031900-
COASTAL MARINE OBSERVATIONS


STATION/POSITION TIME  SKY/WX   TEMP    WIND        PRES    VSBY  WAVE
                                AIR SEA DIR/SP/G                  HT/PER
                 (UTC)          (F)     (DEG/KT/KT) (MB)    (MI)  (FT/S)
NY HARB ENTRANCE 1750            71 71  210/  4/  6 1015.3          2/ 8
4S FIRE IS       1703               71                N/A           2/ 8
20S FIRE ISLAND  1750            70 71   CALM  /  2 1015.4          2/ 8
GREAT SOUTH BAY  1700            74 76  320/  4/ 10   N/A
23SW MTP         1750            67 69   70/  2/  4 1015.2          3/ 8
HUDSON CANYON    NOT AVBL
KINGS POINT      1700            72 66  240/  2/  3 1014.9
CENTRAL LI SOUND NOT AVBL
EASTERN LI SOUND 1700            68 65  210/  6/  8   N/A
ROBBINS REEF     1700            74     100/  5/  6 1014.3
$$


>>>>>>>>>>>>>>>>>>>>>>>>>>>> KEY <<<<<<<<<<<<<<<<<<<<<<<<<<<
>                                                          <
>     SKY/WX - SKY CONDITION/PRESENT WEATHER               <
>     TMP    - TEMPERATURE IN FAHRENHEIT                   <
>     DP     - DEWPOINT IN FAHRENHEIT                      <
>     RH     - RELATIVE HUMIDITY IN PERCENT                <
>     WIND   - DIRECTION AND SPEED IN MPH                  <
>     PRES   - MEAN SEA LEVEL PRESSURE IN INCHES OF HG     <
>     WCI    - WIND CHILL INDEX                            <
>     VSB    - VISIBILITY IN MILES                         <
>     HX     - HEAT INDEX                                  <
>     TC     - TEMPERATURE IN CELSIUS                      <
>     VRB    - VARIABLE WIND DIRECTION                     <
>                                                          <
>>>>>>>>>>>>>>>>>>>>>>>>>>>> KEY <<<<<<<<<<<<<<<<<<<<<<<<<<<





USA.gov is the U.S. government's official web portal to all federal, state and local government web resources and services.